Home > Weather > Lethbridge > Past weeks

Flag for Canada Weather for the Past 2 Weeks in Lethbridge, Alberta, Canada

Now
46 °F

Clear.


Feels Like: 37 °F
Forecast: 33 / 42 °F
Wind: 29 mph from West

Location: Lethbridge

Current Time: Feb 6, 2016 at 3:17:04 AM

Latest Report: Feb 6, 2016 at 2:00 AM


Visibility: 9 mi

Pressure: 29.78 "Hg (26.79 "Hg at 872m altitude)

Humidity: 40%

Dew point: 23 °F

Location of LethbridgeLocation

Historic Weather in Lethbridge — Graph

°F

Lethbridge Temperature Yesterday

Maximum temperature yesterday: 50 °F (at 2:00 PM)
Minimum temperature yesterday: 36 °F (at 12:00 AM)
Average temperature yesterday: 43 °F

High & Low Weather Summary for the Past Weeks

 TemperatureHumidityPressure
High55 °F (Jan 28, 1:00 PM)100% (Jan 23, 8:00 PM)30.22 "Hg (Jan 23, 8:00 PM)
Low10 °F (Feb 3, 12:00 AM)31% (Jan 30, 2:00 PM)29.47 "Hg (Jan 29, 11:00 PM)
Average34 °F69%29.93 "Hg
* Reported Jan 22 2:00 AM — Feb 6 2:00 AM, Lethbridge, Weather by CustomWeather, © 2016

Note: Actual official high and low records may vary slightly from our data, if they occured in-between our weather recording intervals... More about our weather records

Advertising

Lethbridge Weather History for the Previous 24 Hours

 ConditionsComfort  
Time TempWeatherWind HumidityBarometerVisibility
2:00 AM
Sat, Feb 6
46 °FClear.29 mph40%29.78 "Hg9 mi
1:00 AM45 °FPassing clouds.16 mph39%29.82 "Hg9 mi
12:00 AM39 °FClear.15 mph52%29.83 "Hg9 mi
11:00 PM
Fri, Feb 5
46 °FClear.21 mph37%29.84 "Hg9 mi
10:00 PM46 °FOvercast.20 mph37%29.89 "Hg15 mi
9:00 PM45 °FOvercast.32 mph42%29.90 "Hg15 mi
8:00 PM45 °FPassing clouds.14 mph42%29.95 "Hg15 mi
7:00 PM45 °FPassing clouds.13 mph46%29.98 "Hg15 mi
6:00 PM46 °FPassing clouds.26 mph40%29.99 "Hg40 mi
5:00 PM46 °FPartly sunny.28 mph40%29.99 "Hg40 mi
4:00 PM48 °FPartly sunny.28 mph40%30.01 "Hg40 mi
3:00 PM48 °FPartly sunny.24 mph40%30.03 "Hg40 mi
2:00 PM50 °FPartly sunny.26 mph35%30.04 "Hg40 mi
1:00 PM48 °FBroken clouds.45 mph37%30.01 "Hg40 mi
12:00 PM46 °FBroken clouds.44 mph37%30.04 "Hg40 mi
11:00 AM45 °FPartly sunny.37 mph42%30.06 "Hg40 mi
10:00 AM43 °FPartly sunny.30 mph46%30.08 "Hg40 mi
9:00 AM41 °FPartly sunny.37 mph45%30.09 "Hg40 mi
8:00 AM39 °FPartly sunny.23 mph48%30.13 "Hg40 mi
7:00 AM39 °FClear.26 mph48%30.15 "Hg15 mi
6:00 AM37 °FClear.24 mph52%30.17 "Hg15 mi
5:00 AM37 °FClear.28 mph52%30.15 "Hg9 mi
4:00 AM37 °FClear.28 mph52%30.17 "Hg9 mi
3:00 AM36 °FClear.25 mph56%30.17 "Hg9 mi
Weather by CustomWeather, © 2016

See weather overviewHow to use our weather pages